This is the latest recevied weather packets stored in our database for station/object PA3CPS. If no packets are shown the sender has not sent any weather packets the latest 10 day(s).
| Time | Temp. | Humidity | Pressure | Rain* | Wind** | Luminosity | Snow |
|---|---|---|---|---|---|---|---|
| 1778150703 | 16.67° C | 56% | 1015.3 hPa | 0 mm | - | 1037 W/m² | - |
| 1778150403 | 16.67° C | 56% | 1015.3 hPa | 0 mm | - | 993 W/m² | - |
| 1778150102 | 16.67° C | 63% | 1015.3 hPa | 0 mm | - | 963 W/m² | - |
| 1778149802 | 16.11° C | 61% | 1015.3 hPa | 0 mm | - | 269 W/m² | - |
| 1778149499 | 16.11° C | 65% | 1015.2 hPa | 0 mm | - | 912 W/m² | - |
| 1778149197 | 16.11° C | 66% | 1015.2 hPa | 0 mm | - | 942 W/m² | - |
| 1778148895 | 15.56° C | 64% | 1015.2 hPa | 0 mm | - | 923 W/m² | - |
| 1778148595 | 15.56° C | 67% | 1015.1 hPa | 0 mm | - | 932 W/m² | - |
| 1778148293 | 16.11° C | 64% | 1015.1 hPa | 0 mm | - | 881 W/m² | - |
| 1778147990 | 15.56° C | 68% | 1015 hPa | 0 mm | - | 853 W/m² | - |
| 1778147690 | 15° C | 68% | 1015.1 hPa | 0 mm | - | 172 W/m² | - |
| 1778147387 | 15° C | 70% | 1015 hPa | 0 mm | - | 860 W/m² | - |
| 1778147085 | 15° C | 70% | 1015 hPa | 0 mm | - | 837 W/m² | - |
| 1778146782 | 14.44° C | 72% | 1015 hPa | 0 mm | - | 831 W/m² | - |
| 1778146476 | 14.44° C | 70% | 1015 hPa | 0 mm | - | 167 W/m² | - |
| 1778146175 | 15° C | 72% | 1015 hPa | 0 mm | - | 853 W/m² | - |
| 1778145872 | 15° C | 72% | 1014.9 hPa | 0 mm | - | 802 W/m² | - |
| 1778145571 | 14.44° C | 72% | 1014.9 hPa | 0 mm | - | 816 W/m² | - |
| 1778145272 | 13.89° C | 75% | 1015 hPa | 0 mm | - | 807 W/m² | - |
| 1778144971 | 13.89° C | 74% | 1015.1 hPa | 0 mm | - | 772 W/m² | - |
| 1778144671 | 13.89° C | 76% | 1015 hPa | 0 mm | - | 793 W/m² | - |
| 1778144372 | 13.33° C | 77% | 1015 hPa | 0 mm | - | 752 W/m² | - |
| 1778144071 | 13.33° C | 77% | 1015 hPa | 0 mm | - | 759 W/m² | - |
| 1778143768 | 13.33° C | 77% | 1015 hPa | 0 mm | - | 684 W/m² | - |
| 1778143468 | 13.33° C | 76% | 1014.9 hPa | 0 mm | - | 149 W/m² | - |
* Rain latest hour (hover to see other rain measurements)
** Current wind speed in m/s (hover to see current wind gust speed)